RH
35 34 35 33 32 34 37 40 43 49 52 55 57 59 64 72 85 98 100 100 100 99 100 100 93 89 85 88 97 97 98 94 99 97 99 91 95 97 100 89 83 76 81
36 38 35 32 36 38 41 45 48 51 55 59 62 61 62 69 80 100 100 100 100 100 100 100 98 91 85 84 90 92 100 100 99 99 99 100 98 89 99 99 90 88 84
39 35 34 38 39 39 40 41 43 48 55 58 60 64 63 67 77 94 100 100 100 99 99 99 100 98 90 82 83 88 91 96 93 100 99 99 100 97 99 100 92 83 78
35 37 38 38 38 38 40 41 47 54 57 59 61 64 66 70 76 87 96 98 97 95 93 97 98 98 98 94 86 85 85 93 87 81 88 99 99 99 99 99 92 92 86
38 37 37 37 39 41 44 49 56 59 60 64 69 70 72 77 80 97 100 96 95 92 90 91 92 95 97 97 94 95 95 93 97 95 88 99 100 99 98 98 100 100 99
38 37 38 40 45 48 55 59 61 62 65 71 73 78 78 78 84 100 100 96 94 93 96 93 93 98 92 98 98 99 98 93 96 98 100 100 100 100 100 96 100 100 100
38 39 42 47 52 56 59 61 64 67 73 76 76 82 85 85 90 100 100 95 95 94 92 92 91 96 99 92 92 97 100 97 98 99 98 100 99 99 100 100 100 97 96
40 42 46 53 57 59 62 67 70 76 82 85 84 87 92 87 100 100 98 95 94 95 96 96 98 98 98 93 90 90 96 99 93 96 100 90 98 100 100 99 100 98 100
43 47 54 61 64 67 69 74 76 83 88 89 92 98 97 89 91 100 97 96 97 94 94 98 100 99 100 100 97 95 90 95 97 93 93 93 85 97 100 100 100 100 100
49 56 58 65 71 72 77 84 86 91 94 97 100 93 91 92 95 96 99 98 96 94 93 95 98 98 94 96 96 96 96 87 97 93 95 98 99 100 100 99 100 100 100
57 59 63 69 73 78 89 88 93 96 100 96 94 91 91 96 94 96 100 96 96 96 94 94 95 98 96 94 96 98 92 82 91 96 97 100 100 100 99 99 100 100 100
60 63 67 72 79 86 90 92 96 100 100 98 98 92 93 93 94 96 100 98 96 96 95 94 95 95 94 93 96 95 94 99 89 92 93 98 98 94 96 100 100 99 100
64 66 71 75 82 92 100 97 96 99 100 100 100 100 94 93 92 96 96 96 97 98 97 95 97 99 98 97 95 96 92 98 98 94 90 93 97 100 96 99 100 100 100
67 71 75 80 97 88 97 98 97 97 98 97 99 100 100 93 91 95 95 95 95 96 97 96 99 100 98 96 94 95 98 93 97 97 90 90 96 98 99 97 100 100 100
74 76 82 86 92 92 94 95 95 92 99 97 97 99 100 94 90 97 98 98 96 96 98 98 100 100 100 96 95 97 97 98 98 97 96 98 95 91 100 100 100 100 100
78 80 84 99 91 92 94 87 87 96 96 97 97 99 96 98 96 96 98 96 96 96 97 96 97 99 100 97 95 91 92 97 94 97 84 90 92 96 99 100 100 100 100
85 80 91 91 93 97 94 95 95 75 84 94 96 97 97 97 97 97 98 96 96 98 97 98 94 97 100 100 99 89 94 95 92 83 86 86 94 97 100 100 100 100 100
79 82 89 91 98 96 97 95 95 99 96 84 79 95 95 96 96 97 96 97 95 96 97 97 95 96 97 98 99 98 100 98 98 90 86 88 90 98 99 99 99 100 100
79 87 87 91 95 95 93 92 96 98 97 94 91 82 90 96 96 96 96 96 96 96 96 96 96 97 97 98 98 98 99 99 98 99 86 85 82 93 99 100 99 99 100
80 84 86 92 91 91 92 94 98 97 95 97 96 96 96 93 93 94 95 96 96 96 96 96 96 96 96 95 95 96 96 99 99 100 88 85 86 94 99 99 100 99 99
83 82 86 88 91 93 94 98 97 98 97 97 96 96 97 96 95 95 95 96 95 95 95 96 96 96 96 96 97 97 98 99 99 99 92 90 98 99 100 100 100 100 98
84 85 88 91 90 91 98 97 98 95 97 97 96 95 96 95 95 95 96 96 96 96 95 96 96 96 96 96 96 96 97 98 99 100 100 100 100 100 100 98 98 98 97
84 86 87 89 89 96 91 97 96 96 97 96 96 96 96 96 96 95 96 96 95 96 95 96 96 96 96 96 96 96 96 96 97 98 98 98 98 98 97 97 97 97 97
84 90 90 89 92 94 92 96 94 97 98 96 96 96 96 96 96 96 95 96 96 96 96 96 96 96 96 96 96 96 96 96 97 97 97 97 97 97 97 97 97 97 95
86 89 91 91 96 96 93 92 93 97 97 97 96 96 96 96 96 96 96 96 96 96 96 96 96 96 96 96 96 96 96 96 97 97 97 97 97 97 97 96 86 48 34
86 89 90 93 98 98 97 94 92 96 98 97 96 96 96 96 96 96 96 96 96 96 96 96 96 96 96 96 96 96 97 97 97 98 98 97 90 72 45 31 31 30 30
Wind_Speed
32 32 32 33 34 33 32 31 31 32 32 32 31 31 31 30 27 25 24 23 21 21 22 22 21 19 20 21 20 20 20 19 23 21 16 25 22 12 10 9 11 14 16
31 32 34 34 33 32 32 31 31 32 32 32 32 31 30 29 27 23 26 26 22 21 22 21 20 19 20 20 21 22 22 22 21 23 14 11 17 21 14 9 7 7 11
31 33 33 32 32 32 32 32 32 33 33 33 32 32 31 29 28 25 25 24 23 20 19 21 22 18 19 20 20 23 24 22 21 20 19 9 10 15 11 11 10 9 8
32 32 32 32 33 32 33 33 34 34 34 34 33 33 32 29 27 26 24 21 20 19 18 19 19 18 17 17 19 21 22 23 22 25 26 19 11 17 19 12 16 11 9
31 31 32 33 33 34 34 34 35 35 35 35 36 34 31 29 27 24 22 22 23 24 22 20 20 19 18 18 18 18 18 20 20 19 24 22 17 15 19 19 11 12 10
30 32 33 34 35 35 36 36 36 37 37 37 35 34 32 29 26 24 23 24 23 23 24 23 21 20 19 20 21 22 21 21 21 21 22 22 9 12 15 23 17 16 11
31 32 34 35 36 37 37 38 38 38 38 36 35 33 32 29 26 24 23 22 23 24 24 23 23 22 19 19 19 20 22 25 22 21 24 25 22 9 12 20 20 15 12
32 33 34 35 37 38 39 39 39 37 36 36 34 31 30 29 25 25 24 22 23 24 24 25 24 24 21 20 19 21 22 24 30 26 27 27 25 23 13 11 20 20 17
32 34 36 37 39 39 40 40 37 36 36 35 33 33 32 31 25 24 22 22 24 26 25 24 22 22 22 20 21 23 23 24 24 27 28 28 29 28 23 16 16 27 23
33 36 37 38 38 40 39 36 36 35 36 35 34 31 29 28 23 19 18 19 21 21 20 21 20 20 20 18 19 23 26 24 21 25 25 25 25 27 20 20 15 26 28
34 36 38 38 39 38 35 36 36 37 38 35 35 32 28 24 22 19 19 20 22 22 23 23 24 22 19 18 20 24 23 21 22 21 24 27 28 26 26 24 21 19 30
35 37 39 40 38 34 37 38 37 38 38 36 36 33 30 28 26 23 20 21 20 23 25 26 25 22 23 21 21 22 24 24 20 22 23 24 24 24 30 26 23 22 21
35 38 40 39 36 36 38 39 40 37 36 37 35 35 36 34 30 25 20 16 15 18 20 23 25 24 22 22 22 21 21 24 25 23 24 23 21 17 21 30 24 22 23
36 39 40 37 35 38 38 37 36 36 36 34 38 38 38 35 29 26 22 19 17 19 21 21 22 24 23 23 23 22 24 26 27 28 25 22 18 19 21 30 26 27 28
37 39 39 37 39 39 37 36 34 32 29 33 32 31 33 34 30 27 27 26 24 25 22 24 21 21 22 24 25 24 24 26 26 27 26 22 21 21 22 28 27 29 29
38 39 38 37 38 38 39 40 32 30 28 26 22 22 26 26 24 24 25 22 22 23 24 24 19 22 23 22 24 27 28 26 29 28 29 25 23 22 23 26 29 29 30
36 37 38 37 37 38 37 38 42 36 29 28 27 25 21 21 20 21 23 23 25 22 22 23 23 20 23 24 25 25 27 29 29 32 30 28 25 23 22 26 30 31 31
34 36 37 35 36 34 33 34 35 38 40 38 29 28 26 26 27 25 23 20 18 13 14 19 21 20 21 22 23 24 25 27 30 32 31 29 27 26 25 25 29 31 31
36 37 36 34 33 30 30 32 34 35 34 35 36 33 31 32 30 22 18 14 13 12 11 11 13 14 15 16 17 20 22 27 28 31 31 31 30 29 27 25 28 30 29
35 34 33 33 31 30 30 33 33 33 34 35 35 35 34 32 28 25 21 17 14 11 8 7 7 9 12 13 14 16 21 23 30 32 32 32 31 29 30 29 31 31 30
34 34 33 32 31 30 31 32 31 32 33 34 34 31 27 26 25 23 21 18 15 12 9 6 2 4 9 11 13 16 20 25 29 32 32 33 33 32 30 30 31 30 30
31 32 32 32 30 31 30 29 31 31 33 33 32 31 30 28 26 23 20 18 15 12 9 5 1 3 6 10 13 17 21 25 28 31 33 33 33 31 31 31 32 32 33
29 30 31 30 30 31 29 31 31 33 32 31 31 31 31 29 27 25 23 18 15 12 9 5 3 4 6 9 11 15 19 23 26 28 32 32 31 31 32 34 35 38 42
27 28 30 30 31 30 31 31 32 33 32 31 31 30 29 27 25 24 23 21 19 16 12 10 8 7 7 9 11 13 17 20 23 25 27 30 32 33 35 37 40 41 38
24 26 28 31 32 31 31 31 31 33 33 31 30 29 27 26 25 23 22 22 24 26 23 19 15 12 10 10 12 13 15 18 22 25 29 31 33 36 39 39 39 40 38
21 23 25 29 31 31 30 30 31 32 33 31 29 27 26 25 24 22 22 22 23 25 27 26 25 25 23 21 20 21 22 23 25 28 30 32 34 36 36 37 37 36 34
Wind_Direction
315 317 319 320 320 319 319 319 319 317 318 318 318 317 314 312 307 303 301 296 289 282 280 277 272 266 259 252 247 248 251 251 256 263 264 266 271 288 259 225 221 229 232
319 319 320 321 321 322 322 321 321 319 318 319 317 315 313 311 306 296 291 295 296 287 283 285 277 269 258 253 249 244 241 244 253 261 253 293 263 269 264 233 222 217 219
321 321 322 323 323 323 323 322 320 319 319 318 316 314 313 310 304 294 291 293 296 292 284 278 279 275 264 254 247 247 245 249 247 250 250 250 236 247 240 228 240 244 231
324 324 325 324 325 325 323 323 322 322 319 317 316 314 313 309 301 295 292 293 293 292 290 282 279 275 270 263 252 245 243 246 251 250 246 241 241 245 247 270 222 231 225
326 325 324 324 325 326 324 324 322 321 319 318 316 314 312 308 303 298 295 291 291 292 289 284 277 272 267 262 260 254 247 240 250 249 243 241 251 247 237 244 241 212 206
326 326 326 327 327 327 327 324 322 321 320 317 315 313 311 308 302 292 285 282 279 280 282 283 279 270 261 256 252 250 245 241 245 244 236 231 212 229 235 226 225 193 171
326 328 329 329 328 327 326 324 324 322 319 316 315 315 312 308 303 295 291 283 278 277 275 273 274 273 268 254 251 249 247 233 238 247 243 233 227 207 215 227 224 234 207
328 329 330 330 328 327 326 325 323 321 319 320 318 316 314 311 301 294 289 283 276 273 272 271 272 272 263 255 253 249 247 239 231 227 236 236 231 222 221 214 233 221 203
331 331 332 332 330 328 326 324 323 323 321 319 319 317 313 309 307 298 292 281 276 272 269 268 268 268 266 261 251 250 249 248 239 234 235 236 230 235 235 227 217 210 189
333 332 333 333 330 327 326 327 326 325 322 321 316 316 314 309 309 302 293 291 288 287 282 278 273 265 266 262 247 244 248 247 243 233 229 226 226 228 224 224 220 216 209
332 333 334 333 332 332 331 331 331 328 321 321 320 320 318 319 318 310 297 289 280 275 269 268 268 266 258 253 247 247 243 246 242 240 234 232 225 223 216 216 219 220 212
334 335 336 336 337 338 337 335 332 327 322 323 323 324 325 326 323 313 299 290 283 279 278 275 272 265 262 256 249 242 242 242 238 233 231 232 230 225 219 216 215 212 217
336 338 340 340 341 343 336 336 332 329 326 324 320 318 322 324 320 315 307 296 285 277 274 271 268 262 257 256 247 240 231 228 230 225 225 225 226 230 220 213 215 213 219
339 342 343 345 342 344 340 338 334 332 326 324 321 316 311 313 318 319 315 308 300 301 307 294 271 257 252 250 246 236 226 224 224 226 227 219 220 221 218 210 213 213 215
344 346 346 347 345 340 341 340 336 338 326 313 312 312 311 311 314 310 302 296 292 298 291 295 277 254 244 240 238 235 229 220 220 221 220 224 218 217 209 209 217 206 215
346 349 348 344 342 343 342 340 348 348 350 350 345 327 316 310 313 311 306 302 292 285 279 279 273 258 249 241 237 231 230 226 217 218 216 218 218 218 210 206 213 211 207
350 351 347 345 344 343 342 343 342 349 357 359 1 355 347 338 332 326 315 300 291 285 271 262 263 254 246 242 238 232 230 224 215 214 213 214 217 217 213 208 202 205 201
354 355 348 346 344 342 344 345 349 349 348 350 357 357 353 345 336 327 317 308 302 290 268 259 259 254 242 235 230 226 220 220 214 209 209 209 212 213 208 204 201 198 197
360 355 349 347 346 347 348 352 353 352 349 352 354 355 357 345 338 341 340 337 326 312 294 272 256 241 226 215 209 210 212 215 211 207 206 208 209 208 207 204 198 196 198
0 355 352 351 350 354 356 358 355 355 356 357 357 355 350 342 352 353 354 354 348 338 321 294 259 231 217 207 202 201 200 205 209 208 204 204 204 206 207 203 200 199 195
358 356 355 355 358 0 2 357 0 1 1 1 0 358 353 355 358 357 357 359 359 355 351 340 296 210 196 195 194 194 197 201 202 201 198 200 201 203 203 201 197 195 193
359 358 359 360 2 7 3 6 8 7 8 4 3 4 5 8 7 5 4 4 5 5 7 2 349 185 184 187 190 191 193 194 196 198 197 197 198 200 198 196 193 188 180
2 1 2 5 8 10 10 16 14 16 11 10 8 7 9 11 14 16 15 14 18 21 28 39 80 133 160 175 184 190 190 190 191 194 195 193 192 190 188 184 181 173 169
5 5 7 9 13 12 16 17 20 20 16 12 12 12 13 15 18 23 28 33 42 41 44 62 76 98 131 153 168 177 182 183 183 183 185 179 175 175 174 171 167 165 161
7 8 11 15 15 14 16 20 23 22 19 15 15 15 17 19 23 31 39 48 57 62 58 63 73 84 101 121 135 148 156 162 162 161 161 160 159 160 159 159 159 161 163
7 9 12 18 19 18 17 20 24 24 20 17 18 19 20 22 26 32 40 48 57 65 70 70 74 83 91 100 109 116 123 130 137 142 145 149 152 155 158 159 161 162 163